Year,Month,Day,Hour,Minute,Value (Times are PST for temperature in C)
2009,09,27,00,00,8.70
2009,09,27,00,01,8.70
2009,09,27,00,02,8.60
2009,09,27,00,03,8.60
2009,09,27,00,04,8.60
2009,09,27,00,05,8.60
2009,09,27,00,06,8.60
2009,09,27,00,07,8.50
2009,09,27,00,08,8.50
2009,09,27,00,09,8.50
2009,09,27,00,10,8.50
2009,09,27,00,11,8.40
2009,09,27,00,12,8.40
2009,09,27,00,13,8.40
2009,09,27,00,14,8.40
2009,09,27,00,15,8.40
2009,09,27,00,16,8.40
2009,09,27,00,17,8.40
2009,09,27,00,18,8.30
2009,09,27,00,19,8.30
2009,09,27,00,20,8.30
2009,09,27,00,21,8.30
2009,09,27,00,22,8.30
2009,09,27,00,23,8.30
2009,09,27,00,24,8.30
2009,09,27,00,25,8.30
2009,09,27,00,26,8.30
2009,09,27,00,27,8.30
2009,09,27,00,28,8.20
2009,09,27,00,29,8.20
2009,09,27,00,30,8.20
2009,09,27,00,31,8.10
2009,09,27,00,32,8.10
2009,09,27,00,33,8.10
2009,09,27,00,34,8.10
2009,09,27,00,35,8.10
2009,09,27,00,36,8.00
2009,09,27,00,37,8.00
2009,09,27,00,38,8.00
2009,09,27,00,39,8.00
2009,09,27,00,40,8.00
2009,09,27,00,41,7.90
2009,09,27,00,42,7.90
2009,09,27,00,43,7.90
2009,09,27,00,44,7.90
2009,09,27,00,45,7.90
2009,09,27,00,46,7.90
2009,09,27,00,47,7.90
2009,09,27,00,48,7.90
2009,09,27,00,49,7.90
2009,09,27,00,50,7.90
2009,09,27,00,51,7.80
2009,09,27,00,52,7.80
2009,09,27,00,53,7.80
2009,09,27,00,54,7.80
2009,09,27,00,55,7.80
2009,09,27,00,56,7.80
2009,09,27,00,57,7.80
2009,09,27,00,58,7.80
2009,09,27,00,59,7.80
2009,09,27,01,00,7.80
2009,09,27,01,01,7.70
2009,09,27,01,02,7.70
2009,09,27,01,03,7.70
2009,09,27,01,04,7.70
2009,09,27,01,05,7.70
2009,09,27,01,06,7.60
2009,09,27,01,07,7.60
2009,09,27,01,08,7.60
2009,09,27,01,09,7.60
2009,09,27,01,10,7.60
2009,09,27,01,11,7.60
2009,09,27,01,12,7.60
2009,09,27,01,13,7.60
2009,09,27,01,14,7.50
2009,09,27,01,15,7.50
2009,09,27,01,16,7.50
2009,09,27,01,17,7.50
2009,09,27,01,18,7.50
2009,09,27,01,19,7.50
2009,09,27,01,20,7.50
2009,09,27,01,21,7.50
2009,09,27,01,22,7.50
2009,09,27,01,23,7.40
2009,09,27,01,24,7.40
2009,09,27,01,25,7.40
2009,09,27,01,26,7.40
2009,09,27,01,27,7.40
2009,09,27,01,28,7.30
2009,09,27,01,29,7.30
2009,09,27,01,30,7.30
2009,09,27,01,31,7.30
2009,09,27,01,32,7.30
2009,09,27,01,33,7.30
2009,09,27,01,34,7.30
2009,09,27,01,35,7.30
2009,09,27,01,36,7.30
2009,09,27,01,37,7.30
2009,09,27,01,38,7.30
2009,09,27,01,39,7.20
2009,09,27,01,40,7.20
2009,09,27,01,41,7.20
2009,09,27,01,42,7.20
2009,09,27,01,43,7.20
2009,09,27,01,44,7.20
2009,09,27,01,45,7.20
2009,09,27,01,46,7.20
2009,09,27,01,47,7.20
2009,09,27,01,48,7.10
2009,09,27,01,49,7.10
2009,09,27,01,50,7.10
2009,09,27,01,51,7.10
2009,09,27,01,52,7.10
2009,09,27,01,53,7.00
2009,09,27,01,54,7.00
2009,09,27,01,55,7.00
2009,09,27,01,56,7.00
2009,09,27,01,57,7.00
2009,09,27,01,58,7.00
2009,09,27,01,59,6.90
2009,09,27,02,00,6.90
2009,09,27,02,01,6.90
2009,09,27,02,02,6.90
2009,09,27,02,03,6.90
2009,09,27,02,04,6.90
2009,09,27,02,05,6.90
2009,09,27,02,06,6.80
2009,09,27,02,07,6.80
2009,09,27,02,08,6.80
2009,09,27,02,09,6.80
2009,09,27,02,10,6.80
2009,09,27,02,11,6.80
2009,09,27,02,12,6.80
2009,09,27,02,13,6.80
2009,09,27,02,14,6.80
2009,09,27,02,15,6.80
2009,09,27,02,16,6.80
2009,09,27,02,17,6.80
2009,09,27,02,18,6.80
2009,09,27,02,19,6.80
2009,09,27,02,20,6.80
2009,09,27,02,21,6.80
2009,09,27,02,22,6.80
2009,09,27,02,23,6.80
2009,09,27,02,24,6.70
2009,09,27,02,25,6.70
2009,09,27,02,26,6.70
2009,09,27,02,27,6.70
2009,09,27,02,28,6.70
2009,09,27,02,29,6.70
2009,09,27,02,30,6.60
2009,09,27,02,31,6.60
2009,09,27,02,32,6.60
2009,09,27,02,33,6.60
2009,09,27,02,34,6.50
2009,09,27,02,35,6.50
2009,09,27,02,36,6.50
2009,09,27,02,37,6.40
2009,09,27,02,38,6.40
2009,09,27,02,39,6.40
2009,09,27,02,40,6.40
2009,09,27,02,41,6.40
2009,09,27,02,42,6.40
2009,09,27,02,43,6.40
2009,09,27,02,44,6.40
2009,09,27,02,45,6.40
2009,09,27,02,46,6.40
2009,09,27,02,47,6.40
2009,09,27,02,48,6.40
2009,09,27,02,49,6.40
2009,09,27,02,50,6.40
2009,09,27,02,51,6.30
2009,09,27,02,52,6.30
2009,09,27,02,53,6.30
2009,09,27,02,54,6.30
2009,09,27,02,55,6.30
2009,09,27,02,56,6.30
2009,09,27,02,57,6.30
2009,09,27,02,58,6.30
2009,09,27,02,59,6.20
2009,09,27,03,00,6.20
2009,09,27,03,01,6.20
2009,09,27,03,02,6.20
2009,09,27,03,03,6.10
2009,09,27,03,04,6.10
2009,09,27,03,05,6.10
2009,09,27,03,06,6.10
2009,09,27,03,07,6.10
2009,09,27,03,08,6.10
2009,09,27,03,09,6.20
2009,09,27,03,10,6.20
2009,09,27,03,11,6.20
2009,09,27,03,12,6.20
2009,09,27,03,13,6.20
2009,09,27,03,14,6.20
2009,09,27,03,15,6.20
2009,09,27,03,16,6.20
2009,09,27,03,17,6.20
2009,09,27,03,18,6.20
2009,09,27,03,19,6.20
2009,09,27,03,20,6.20
2009,09,27,03,21,6.20
2009,09,27,03,22,6.10
2009,09,27,03,23,6.10
2009,09,27,03,24,6.10
2009,09,27,03,25,6.10
2009,09,27,03,26,6.10
2009,09,27,03,27,6.10
2009,09,27,03,28,6.10
2009,09,27,03,29,6.10
2009,09,27,03,30,6.10
2009,09,27,03,31,6.10
2009,09,27,03,32,6.10
2009,09,27,03,33,6.10
2009,09,27,03,34,6.10
2009,09,27,03,35,6.00
2009,09,27,03,36,6.00
2009,09,27,03,37,6.00
2009,09,27,03,38,6.00
2009,09,27,03,39,6.00
2009,09,27,03,40,6.00
2009,09,27,03,41,6.00
2009,09,27,03,42,5.90
2009,09,27,03,43,5.90
2009,09,27,03,44,5.90
2009,09,27,03,45,5.90
2009,09,27,03,46,5.90
2009,09,27,03,47,5.90
2009,09,27,03,48,5.90
2009,09,27,03,49,5.90
2009,09,27,03,50,5.90
2009,09,27,03,51,5.90
2009,09,27,03,52,5.90
2009,09,27,03,53,5.90
2009,09,27,03,54,5.90
2009,09,27,03,55,5.90
2009,09,27,03,56,5.90
2009,09,27,03,57,5.90
2009,09,27,03,58,5.80
2009,09,27,03,59,5.80
2009,09,27,04,00,5.80
2009,09,27,04,01,5.80
2009,09,27,04,02,5.80
2009,09,27,04,03,5.80
2009,09,27,04,04,5.80
2009,09,27,04,05,5.70
2009,09,27,04,06,5.70
2009,09,27,04,07,5.70
2009,09,27,04,08,5.70
2009,09,27,04,09,5.70
2009,09,27,04,10,5.70
2009,09,27,04,11,5.70
2009,09,27,04,12,5.70
2009,09,27,04,13,5.70
2009,09,27,04,14,5.70
2009,09,27,04,15,5.70
2009,09,27,04,16,5.60
2009,09,27,04,17,5.60
2009,09,27,04,18,5.60
2009,09,27,04,19,5.60
2009,09,27,04,20,5.60
2009,09,27,04,21,5.60
2009,09,27,04,22,5.60
2009,09,27,04,23,5.60
2009,09,27,04,24,5.60
2009,09,27,04,25,5.60
2009,09,27,04,26,5.60
2009,09,27,04,27,5.60
2009,09,27,04,28,5.60
2009,09,27,04,29,5.60
2009,09,27,04,30,5.60
2009,09,27,04,31,5.70
2009,09,27,04,32,5.70
2009,09,27,04,33,5.70
2009,09,27,04,34,5.70
2009,09,27,04,35,5.70
2009,09,27,04,36,5.70
2009,09,27,04,37,5.70
2009,09,27,04,38,5.70
2009,09,27,04,39,5.70
2009,09,27,04,40,5.70
2009,09,27,04,41,5.70
2009,09,27,04,42,5.70
2009,09,27,04,43,5.70
2009,09,27,04,44,5.70
2009,09,27,04,45,5.70
2009,09,27,04,46,5.70
2009,09,27,04,47,5.70
2009,09,27,04,48,5.70
2009,09,27,04,49,5.70
2009,09,27,04,50,5.70
2009,09,27,04,51,5.70
2009,09,27,04,52,5.70
2009,09,27,04,53,5.70
2009,09,27,04,54,5.60
2009,09,27,04,55,5.60
2009,09,27,04,56,5.60
2009,09,27,04,57,5.60
2009,09,27,04,58,5.60
2009,09,27,04,59,5.60
2009,09,27,05,00,5.60
2009,09,27,05,01,5.60
2009,09,27,05,02,5.60
2009,09,27,05,03,5.60
2009,09,27,05,04,5.60
2009,09,27,05,05,5.60
2009,09,27,05,06,5.60
2009,09,27,05,07,5.60
2009,09,27,05,08,5.60
2009,09,27,05,09,5.60
2009,09,27,05,10,5.60
2009,09,27,05,11,5.60
2009,09,27,05,12,5.60
2009,09,27,05,13,5.60
2009,09,27,05,14,5.60
2009,09,27,05,15,5.60
2009,09,27,05,16,5.60
2009,09,27,05,17,5.60
2009,09,27,05,18,5.60
2009,09,27,05,19,5.60
2009,09,27,05,20,5.60
2009,09,27,05,21,5.60
2009,09,27,05,22,5.60
2009,09,27,05,23,5.60
2009,09,27,05,24,5.60
2009,09,27,05,25,5.60
2009,09,27,05,26,5.60
2009,09,27,05,27,5.60
2009,09,27,05,28,5.60
2009,09,27,05,29,5.50
2009,09,27,05,30,5.50
2009,09,27,05,31,5.40
2009,09,27,05,32,5.40
2009,09,27,05,33,5.40
2009,09,27,05,34,5.40
2009,09,27,05,35,5.40
2009,09,27,05,36,5.40
2009,09,27,05,37,5.30
2009,09,27,05,38,5.30
2009,09,27,05,39,5.30
2009,09,27,05,40,5.30
2009,09,27,05,41,5.30
2009,09,27,05,42,5.30
2009,09,27,05,43,5.30
2009,09,27,05,44,5.30
2009,09,27,05,45,5.30
2009,09,27,05,46,5.30
2009,09,27,05,47,5.30
2009,09,27,05,48,5.30
2009,09,27,05,49,5.20
2009,09,27,05,50,5.20
2009,09,27,05,51,5.20
2009,09,27,05,52,5.20
2009,09,27,05,53,5.20
2009,09,27,05,54,5.20
2009,09,27,05,55,5.20
2009,09,27,05,56,5.20
2009,09,27,05,57,5.20
2009,09,27,05,58,5.30
2009,09,27,05,59,5.30
2009,09,27,06,00,5.40
2009,09,27,06,01,5.40
2009,09,27,06,02,5.40
2009,09,27,06,03,5.40
2009,09,27,06,04,5.40
2009,09,27,06,05,5.40
2009,09,27,06,06,5.40
2009,09,27,06,07,5.50
2009,09,27,06,08,5.50
2009,09,27,06,09,5.60
2009,09,27,06,10,5.60
2009,09,27,06,11,5.60
2009,09,27,06,12,5.70
2009,09,27,06,13,5.70
2009,09,27,06,14,5.70
2009,09,27,06,15,5.70
2009,09,27,06,16,5.70
2009,09,27,06,17,5.80
2009,09,27,06,18,5.80
2009,09,27,06,19,5.80
2009,09,27,06,20,5.90
2009,09,27,06,21,5.90
2009,09,27,06,22,6.00
2009,09,27,06,23,6.00
2009,09,27,06,24,6.00
2009,09,27,06,25,6.00
2009,09,27,06,26,6.10
2009,09,27,06,27,6.10
2009,09,27,06,28,6.20
2009,09,27,06,29,6.20
2009,09,27,06,30,6.20
2009,09,27,06,31,6.20
2009,09,27,06,32,6.20
2009,09,27,06,33,6.30
2009,09,27,06,34,6.30
2009,09,27,06,35,6.30
2009,09,27,06,36,6.40
2009,09,27,06,37,6.40
2009,09,27,06,38,6.40
2009,09,27,06,39,6.40
2009,09,27,06,40,6.40
2009,09,27,06,41,6.40
2009,09,27,06,42,6.40
2009,09,27,06,43,6.40
2009,09,27,06,44,6.40
2009,09,27,06,45,6.40
2009,09,27,06,46,6.50
2009,09,27,06,47,6.50
2009,09,27,06,48,6.50
2009,09,27,06,49,6.50
2009,09,27,06,50,6.60
2009,09,27,06,51,6.60
2009,09,27,06,52,6.60
2009,09,27,06,53,6.60
2009,09,27,06,54,6.60
2009,09,27,06,55,6.70
2009,09,27,06,56,6.70
2009,09,27,06,57,6.70
2009,09,27,06,58,6.70
2009,09,27,06,59,6.70
2009,09,27,07,00,6.70
2009,09,27,07,01,6.70
2009,09,27,07,02,6.70
2009,09,27,07,03,6.70
2009,09,27,07,04,6.70
2009,09,27,07,05,6.70
2009,09,27,07,06,6.70
2009,09,27,07,07,6.70
2009,09,27,07,08,6.70
2009,09,27,07,09,6.70
2009,09,27,07,10,6.70
2009,09,27,07,11,6.70
2009,09,27,07,12,6.70
2009,09,27,07,13,6.70
2009,09,27,07,14,6.70
2009,09,27,07,15,6.70
2009,09,27,07,16,6.70
2009,09,27,07,17,6.70
2009,09,27,07,18,6.70
2009,09,27,07,19,6.70
2009,09,27,07,20,6.70
2009,09,27,07,21,6.70
2009,09,27,07,22,6.70
2009,09,27,07,23,6.70
2009,09,27,07,24,6.80
2009,09,27,07,25,6.80
2009,09,27,07,26,6.80
2009,09,27,07,27,6.90
2009,09,27,07,28,6.90
2009,09,27,07,29,6.90
2009,09,27,07,30,6.90
2009,09,27,07,31,7.00
2009,09,27,07,32,7.00
2009,09,27,07,33,7.10
2009,09,27,07,34,7.10
2009,09,27,07,35,7.10
2009,09,27,07,36,7.10
2009,09,27,07,37,7.20
2009,09,27,07,38,7.20
2009,09,27,07,39,7.20
2009,09,27,07,40,7.30
2009,09,27,07,41,7.30
2009,09,27,07,42,7.30
2009,09,27,07,43,7.40
2009,09,27,07,44,7.40
2009,09,27,07,45,7.50
2009,09,27,07,46,7.60
2009,09,27,07,47,7.60
2009,09,27,07,48,7.70
2009,09,27,07,49,7.70
2009,09,27,07,50,7.80
2009,09,27,07,51,7.90
2009,09,27,07,52,8.00
2009,09,27,07,53,8.10
2009,09,27,07,54,8.20
2009,09,27,07,55,8.30
2009,09,27,07,56,8.30
2009,09,27,07,57,8.40
2009,09,27,07,58,8.50
2009,09,27,07,59,8.60
2009,09,27,08,00,8.60
2009,09,27,08,01,8.70
2009,09,27,08,02,8.70
2009,09,27,08,03,8.80
2009,09,27,08,04,8.80
2009,09,27,08,05,8.90
2009,09,27,08,06,8.90
2009,09,27,08,07,9.00
2009,09,27,08,08,9.00
2009,09,27,08,09,9.10
2009,09,27,08,10,9.10
2009,09,27,08,11,9.10
2009,09,27,08,12,9.20
2009,09,27,08,13,9.30
2009,09,27,08,14,9.30
2009,09,27,08,15,9.40
2009,09,27,08,16,9.50
2009,09,27,08,17,9.60
2009,09,27,08,18,9.70
2009,09,27,08,19,9.70
2009,09,27,08,20,9.80
2009,09,27,08,21,9.80
2009,09,27,08,22,9.90
2009,09,27,08,23,9.90
2009,09,27,08,24,10.00
2009,09,27,08,25,10.00
2009,09,27,08,26,10.10
2009,09,27,08,27,10.10
2009,09,27,08,28,10.20
2009,09,27,08,29,10.20
2009,09,27,08,30,10.30
2009,09,27,08,31,10.40
2009,09,27,08,32,10.50
2009,09,27,08,33,10.60
2009,09,27,08,34,10.60
2009,09,27,08,35,10.70
2009,09,27,08,36,10.80
2009,09,27,08,37,10.90
2009,09,27,08,38,11.00
2009,09,27,08,39,11.00
2009,09,27,08,40,11.10
2009,09,27,08,41,11.10
2009,09,27,08,42,11.20
2009,09,27,08,43,11.20
2009,09,27,08,44,11.20
2009,09,27,08,45,11.20
2009,09,27,08,46,11.30
2009,09,27,08,47,11.30
2009,09,27,08,48,11.30
2009,09,27,08,49,11.30
2009,09,27,08,50,11.40
2009,09,27,08,51,11.40
2009,09,27,08,52,11.40
2009,09,27,08,53,11.50
2009,09,27,08,54,11.60
2009,09,27,08,55,11.60
2009,09,27,08,56,11.60
2009,09,27,08,57,11.70
2009,09,27,08,58,11.70
2009,09,27,08,59,11.80
2009,09,27,09,00,11.80
2009,09,27,09,01,11.90
2009,09,27,09,02,11.90
2009,09,27,09,03,12.00
2009,09,27,09,04,12.10
2009,09,27,09,05,12.10
2009,09,27,09,06,12.20
2009,09,27,09,07,12.20
2009,09,27,09,08,12.20
2009,09,27,09,09,12.30
2009,09,27,09,10,12.30
2009,09,27,09,11,12.40
2009,09,27,09,12,12.40
2009,09,27,09,13,12.40
2009,09,27,09,14,12.50
2009,09,27,09,15,12.50
2009,09,27,09,16,12.50
2009,09,27,09,17,12.50
2009,09,27,09,18,12.60
2009,09,27,09,19,12.60
2009,09,27,09,20,12.60
2009,09,27,09,21,12.70
2009,09,27,09,22,12.70
2009,09,27,09,23,12.70
2009,09,27,09,24,12.80
2009,09,27,09,25,12.80
2009,09,27,09,26,12.80
2009,09,27,09,27,12.80
2009,09,27,09,28,12.90
2009,09,27,09,29,12.90
2009,09,27,09,30,12.90
2009,09,27,09,31,13.00
2009,09,27,09,32,13.00
2009,09,27,09,33,13.10
2009,09,27,09,34,13.20
2009,09,27,09,35,13.20
2009,09,27,09,36,13.30
2009,09,27,09,37,13.30
2009,09,27,09,38,13.40
2009,09,27,09,39,13.40
2009,09,27,09,40,13.40
2009,09,27,09,41,13.40
2009,09,27,09,42,13.50
2009,09,27,09,43,13.50
2009,09,27,09,44,13.50
2009,09,27,09,45,13.60
2009,09,27,09,46,13.60
2009,09,27,09,47,13.60
2009,09,27,09,48,13.70
2009,09,27,09,49,13.70
2009,09,27,09,50,13.80
2009,09,27,09,51,13.80
2009,09,27,09,52,13.80
2009,09,27,09,53,13.90
2009,09,27,09,54,13.90
2009,09,27,09,55,13.90
2009,09,27,09,56,14.00
2009,09,27,09,57,14.00
2009,09,27,09,58,14.10
2009,09,27,09,59,14.10
2009,09,27,10,00,14.10
2009,09,27,10,01,14.20
2009,09,27,10,02,14.20
2009,09,27,10,03,14.30
2009,09,27,10,04,14.30
2009,09,27,10,05,14.40
2009,09,27,10,06,14.50
2009,09,27,10,07,14.50
2009,09,27,10,08,14.60
2009,09,27,10,09,14.60
2009,09,27,10,10,14.60
2009,09,27,10,11,14.60
2009,09,27,10,12,14.60
2009,09,27,10,13,14.60
2009,09,27,10,14,14.60
2009,09,27,10,15,14.70
2009,09,27,10,16,14.70
2009,09,27,10,17,14.80
2009,09,27,10,18,14.80
2009,09,27,10,19,14.80
2009,09,27,10,20,14.90
2009,09,27,10,21,14.90
2009,09,27,10,22,14.90
2009,09,27,10,23,14.90
2009,09,27,10,24,15.00
2009,09,27,10,25,15.00
2009,09,27,10,26,15.00
2009,09,27,10,27,15.00
2009,09,27,10,28,15.00
2009,09,27,10,29,15.10
2009,09,27,10,30,15.20
2009,09,27,10,31,15.20
2009,09,27,10,32,15.30
2009,09,27,10,33,15.30
2009,09,27,10,34,15.30
2009,09,27,10,35,15.30
2009,09,27,10,36,15.30
2009,09,27,10,37,15.30
2009,09,27,10,38,15.30
2009,09,27,10,39,15.40
2009,09,27,10,40,15.50
2009,09,27,10,41,15.50
2009,09,27,10,42,15.50
2009,09,27,10,43,15.50
2009,09,27,10,44,15.50
2009,09,27,10,45,15.60
2009,09,27,10,46,15.60
2009,09,27,10,47,15.60
2009,09,27,10,48,15.60
2009,09,27,10,49,15.60
2009,09,27,10,50,15.60
2009,09,27,10,51,15.60
2009,09,27,10,52,15.60
2009,09,27,10,53,15.60
2009,09,27,10,54,15.60
2009,09,27,10,55,15.60
2009,09,27,10,56,15.70
2009,09,27,10,57,15.70
2009,09,27,10,58,15.80
2009,09,27,10,59,15.80
2009,09,27,11,00,15.90
2009,09,27,11,01,15.90
2009,09,27,11,02,16.00
2009,09,27,11,03,16.00
2009,09,27,11,04,16.00
2009,09,27,11,05,15.90
2009,09,27,11,06,15.90
2009,09,27,11,07,15.90
2009,09,27,11,08,15.90
2009,09,27,11,09,15.90
2009,09,27,11,10,15.90
2009,09,27,11,11,15.90
2009,09,27,11,12,15.90
2009,09,27,11,13,15.90
2009,09,27,11,14,16.00
2009,09,27,11,15,16.00
2009,09,27,11,16,16.10
2009,09,27,11,17,16.10
2009,09,27,11,18,16.10
2009,09,27,11,19,16.10
2009,09,27,11,20,16.10
2009,09,27,11,21,16.10
2009,09,27,11,22,16.10
2009,09,27,11,23,16.00
2009,09,27,11,24,15.80
2009,09,27,11,25,15.80
2009,09,27,11,26,15.70
2009,09,27,11,27,15.70
2009,09,27,11,28,15.80
2009,09,27,11,29,15.80
2009,09,27,11,30,15.90
2009,09,27,11,31,16.00
2009,09,27,11,32,16.00
2009,09,27,11,33,15.90
2009,09,27,11,34,15.90
2009,09,27,11,35,15.90
2009,09,27,11,36,15.90
2009,09,27,11,37,15.90
2009,09,27,11,38,15.90
2009,09,27,11,39,16.00
2009,09,27,11,40,16.00
2009,09,27,11,41,16.00
2009,09,27,11,42,16.00
2009,09,27,11,43,16.10
2009,09,27,11,44,16.00
2009,09,27,11,45,16.10
2009,09,27,11,46,16.10
2009,09,27,11,47,16.20
2009,09,27,11,48,16.20
2009,09,27,11,49,16.20
2009,09,27,11,50,16.20
2009,09,27,11,51,16.20
2009,09,27,11,52,16.20
2009,09,27,11,53,16.20
2009,09,27,11,54,16.20
2009,09,27,11,55,16.20
2009,09,27,11,56,16.20
2009,09,27,11,57,16.10
2009,09,27,11,58,16.10
2009,09,27,11,59,16.10
2009,09,27,12,00,16.10
2009,09,27,12,01,16.10
2009,09,27,12,02,16.10
2009,09,27,12,03,16.10
2009,09,27,12,04,16.10
2009,09,27,12,05,16.20
2009,09,27,12,06,16.30
2009,09,27,12,07,16.40
2009,09,27,12,08,16.50
2009,09,27,12,09,16.60
2009,09,27,12,10,16.70
2009,09,27,12,11,16.60
2009,09,27,12,12,16.70
2009,09,27,12,13,16.70
2009,09,27,12,14,16.70
2009,09,27,12,15,16.80
2009,09,27,12,16,16.80
2009,09,27,12,17,16.90
2009,09,27,12,18,16.90
2009,09,27,12,19,16.90
2009,09,27,12,20,16.90
2009,09,27,12,21,17.00
2009,09,27,12,22,17.00
2009,09,27,12,23,17.00
2009,09,27,12,24,17.00
2009,09,27,12,25,17.10
2009,09,27,12,26,17.10
2009,09,27,12,27,17.10
2009,09,27,12,28,17.20
2009,09,27,12,29,17.30
2009,09,27,12,30,17.40
2009,09,27,12,31,17.40
2009,09,27,12,32,17.50
2009,09,27,12,33,17.50
2009,09,27,12,34,17.40
2009,09,27,12,35,17.30
2009,09,27,12,36,17.20
2009,09,27,12,37,17.30
2009,09,27,12,38,17.30
2009,09,27,12,39,17.40
2009,09,27,12,40,17.40
2009,09,27,12,41,17.40
2009,09,27,12,42,17.30
2009,09,27,12,43,17.30
2009,09,27,12,44,17.40
2009,09,27,12,45,17.50
2009,09,27,12,46,17.60
2009,09,27,12,47,17.70
2009,09,27,12,48,17.70
2009,09,27,12,49,17.80
2009,09,27,12,50,17.80
2009,09,27,12,51,17.90
2009,09,27,12,52,17.90
2009,09,27,12,53,18.00
2009,09,27,12,54,18.00
2009,09,27,12,55,18.00
2009,09,27,12,56,17.90
2009,09,27,12,57,17.90
2009,09,27,12,58,17.90
2009,09,27,12,59,17.90
2009,09,27,13,00,17.90
2009,09,27,13,01,17.90
2009,09,27,13,02,17.90
2009,09,27,13,03,17.90
2009,09,27,13,04,17.90
2009,09,27,13,05,17.90
2009,09,27,13,06,17.90
2009,09,27,13,07,17.80
2009,09,27,13,08,17.80
2009,09,27,13,09,17.80
2009,09,27,13,10,17.90
2009,09,27,13,11,17.90
2009,09,27,13,12,18.00
2009,09,27,13,13,18.00
2009,09,27,13,14,18.10
2009,09,27,13,15,18.10
2009,09,27,13,16,18.00
2009,09,27,13,17,18.00
2009,09,27,13,18,18.10
2009,09,27,13,19,18.20
2009,09,27,13,20,18.10
2009,09,27,13,21,17.90
2009,09,27,13,22,17.90
2009,09,27,13,23,17.80
2009,09,27,13,24,17.80
2009,09,27,13,25,17.80
2009,09,27,13,26,17.90
2009,09,27,13,27,17.90
2009,09,27,13,28,17.90
2009,09,27,13,29,17.80
2009,09,27,13,30,17.70
2009,09,27,13,31,17.70
2009,09,27,13,32,17.60
2009,09,27,13,33,17.60
2009,09,27,13,34,17.60
2009,09,27,13,35,17.60
2009,09,27,13,36,17.60
2009,09,27,13,37,17.70
2009,09,27,13,38,17.80
2009,09,27,13,39,17.70
2009,09,27,13,40,17.70
2009,09,27,13,41,17.60
2009,09,27,13,42,17.60
2009,09,27,13,43,17.70
2009,09,27,13,44,17.70
2009,09,27,13,45,17.80
2009,09,27,13,46,17.80
2009,09,27,13,47,17.70
2009,09,27,13,48,17.80
2009,09,27,13,49,17.70
2009,09,27,13,50,17.70
2009,09,27,13,51,17.60
2009,09,27,13,52,17.60
2009,09,27,13,53,17.60
2009,09,27,13,54,17.60
2009,09,27,13,55,17.70
2009,09,27,13,56,17.80
2009,09,27,13,57,17.80
2009,09,27,13,58,17.80
2009,09,27,13,59,17.80
2009,09,27,14,00,17.80
2009,09,27,14,01,17.80
2009,09,27,14,02,17.80
2009,09,27,14,03,17.90
2009,09,27,14,04,18.00
2009,09,27,14,05,18.10
2009,09,27,14,06,18.20
2009,09,27,14,07,18.30
2009,09,27,14,08,18.20
2009,09,27,14,09,18.20
2009,09,27,14,10,18.20
2009,09,27,14,11,18.20
2009,09,27,14,12,18.20
2009,09,27,14,13,18.20
2009,09,27,14,14,18.30
2009,09,27,14,15,18.40
2009,09,27,14,16,18.50
2009,09,27,14,17,18.50
2009,09,27,14,18,18.50
2009,09,27,14,19,18.40
2009,09,27,14,20,18.40
2009,09,27,14,21,18.50
2009,09,27,14,22,18.50
2009,09,27,14,23,18.60
2009,09,27,14,24,18.50
2009,09,27,14,25,18.50
2009,09,27,14,26,18.50
2009,09,27,14,27,18.40
2009,09,27,14,28,18.30
2009,09,27,14,29,18.10
2009,09,27,14,30,18.00
2009,09,27,14,31,18.00
2009,09,27,14,32,18.10
2009,09,27,14,33,18.10
2009,09,27,14,34,18.20
2009,09,27,14,35,18.20
2009,09,27,14,36,18.10
2009,09,27,14,37,18.00
2009,09,27,14,38,17.90
2009,09,27,14,39,17.80
2009,09,27,14,40,17.80
2009,09,27,14,41,17.80
2009,09,27,14,42,17.80
2009,09,27,14,43,17.70
2009,09,27,14,44,17.70
2009,09,27,14,45,17.70
2009,09,27,14,46,17.80
2009,09,27,14,47,17.90
2009,09,27,14,48,17.90
2009,09,27,14,49,18.00
2009,09,27,14,50,18.00
2009,09,27,14,51,17.90
2009,09,27,14,52,18.00
2009,09,27,14,53,18.00
2009,09,27,14,54,18.10
2009,09,27,14,55,18.20
2009,09,27,14,56,18.30
2009,09,27,14,57,18.40
2009,09,27,14,58,18.60
2009,09,27,14,59,18.70
2009,09,27,15,00,18.80
2009,09,27,15,01,18.90
2009,09,27,15,02,18.80
2009,09,27,15,03,18.80
2009,09,27,15,04,18.90
2009,09,27,15,05,18.90
2009,09,27,15,06,18.90
2009,09,27,15,07,18.90
2009,09,27,15,08,19.00
2009,09,27,15,09,18.90
2009,09,27,15,10,18.80
2009,09,27,15,11,18.70
2009,09,27,15,12,18.70
2009,09,27,15,13,18.70
2009,09,27,15,14,18.70
2009,09,27,15,15,18.70
2009,09,27,15,16,18.80
2009,09,27,15,17,18.70
2009,09,27,15,18,18.70
2009,09,27,15,19,18.70
2009,09,27,15,20,18.70
2009,09,27,15,21,18.70
2009,09,27,15,22,18.70
2009,09,27,15,23,18.60
2009,09,27,15,24,18.60
2009,09,27,15,25,18.70
2009,09,27,15,26,18.70
2009,09,27,15,27,18.80
2009,09,27,15,28,18.80
2009,09,27,15,29,18.80
2009,09,27,15,30,18.80
2009,09,27,15,31,18.90
2009,09,27,15,32,18.90
2009,09,27,15,33,18.80
2009,09,27,15,34,18.80
2009,09,27,15,35,18.90
2009,09,27,15,36,18.90
2009,09,27,15,37,18.90
2009,09,27,15,38,18.80
2009,09,27,15,39,18.70
2009,09,27,15,40,18.60
2009,09,27,15,41,18.50
2009,09,27,15,42,18.50
2009,09,27,15,43,18.40
2009,09,27,15,44,18.40
2009,09,27,15,45,18.50
2009,09,27,15,46,18.50
2009,09,27,15,47,18.60
2009,09,27,15,48,18.70
2009,09,27,15,49,18.70
2009,09,27,15,50,18.70
2009,09,27,15,51,18.70
2009,09,27,15,52,18.60
2009,09,27,15,53,18.60
2009,09,27,15,54,18.60
2009,09,27,15,55,18.60
2009,09,27,15,56,18.60
2009,09,27,15,57,18.60
2009,09,27,15,58,18.60
2009,09,27,15,59,18.60
2009,09,27,16,00,18.70
2009,09,27,16,01,18.80
2009,09,27,16,02,18.80
2009,09,27,16,03,18.80
2009,09,27,16,04,18.80
2009,09,27,16,05,18.80
2009,09,27,16,06,18.80
2009,09,27,16,07,18.90
2009,09,27,16,08,18.90
2009,09,27,16,09,19.00
2009,09,27,16,10,18.90
2009,09,27,16,11,18.90
2009,09,27,16,12,18.90
2009,09,27,16,13,19.00
2009,09,27,16,14,19.00
2009,09,27,16,15,19.10
2009,09,27,16,16,19.20
2009,09,27,16,17,19.30
2009,09,27,16,18,19.40
2009,09,27,16,19,19.40
2009,09,27,16,20,19.30
2009,09,27,16,21,19.20
2009,09,27,16,22,19.20
2009,09,27,16,23,19.20
2009,09,27,16,24,19.10
2009,09,27,16,25,19.10
2009,09,27,16,26,19.10
2009,09,27,16,27,19.10
2009,09,27,16,28,19.00
2009,09,27,16,29,19.00
2009,09,27,16,30,18.90
2009,09,27,16,31,18.90
2009,09,27,16,32,18.80
2009,09,27,16,33,18.80
2009,09,27,16,34,18.80
2009,09,27,16,35,18.80
2009,09,27,16,36,18.80
2009,09,27,16,37,18.80
2009,09,27,16,38,18.90
2009,09,27,16,39,18.90
2009,09,27,16,40,18.90
2009,09,27,16,41,18.90
2009,09,27,16,42,19.00
2009,09,27,16,43,19.00
2009,09,27,16,44,19.10
2009,09,27,16,45,19.20
2009,09,27,16,46,19.20
2009,09,27,16,47,19.20
2009,09,27,16,48,19.20
2009,09,27,16,49,19.20
2009,09,27,16,50,19.20
2009,09,27,16,51,19.20
2009,09,27,16,52,19.10
2009,09,27,16,53,19.00
2009,09,27,16,54,19.00
2009,09,27,16,55,18.90
2009,09,27,16,56,18.90
2009,09,27,16,57,18.90
2009,09,27,16,58,19.00
2009,09,27,16,59,19.00
2009,09,27,17,00,19.00
2009,09,27,17,01,19.00
2009,09,27,17,02,19.10
2009,09,27,17,03,19.00
2009,09,27,17,04,19.00
2009,09,27,17,05,19.10
2009,09,27,17,06,19.10
2009,09,27,17,07,19.10
2009,09,27,17,08,19.10
2009,09,27,17,09,19.10
2009,09,27,17,10,19.10
2009,09,27,17,11,19.00
2009,09,27,17,12,19.00
2009,09,27,17,13,19.00
2009,09,27,17,14,19.00
2009,09,27,17,15,19.00
2009,09,27,17,16,19.00
2009,09,27,17,17,19.00
2009,09,27,17,18,18.90
2009,09,27,17,19,18.90
2009,09,27,17,20,18.90
2009,09,27,17,21,18.90
2009,09,27,17,22,19.00
2009,09,27,17,23,19.00
2009,09,27,17,24,19.00
2009,09,27,17,25,19.00
2009,09,27,17,26,19.10
2009,09,27,17,27,19.10
2009,09,27,17,28,19.10
2009,09,27,17,29,19.10
2009,09,27,17,30,19.00
2009,09,27,17,31,18.90
2009,09,27,17,32,18.90
2009,09,27,17,33,18.80
2009,09,27,17,34,18.80
2009,09,27,17,35,18.80
2009,09,27,17,36,18.80
2009,09,27,17,37,18.70
2009,09,27,17,38,18.70
2009,09,27,17,39,18.70
2009,09,27,17,40,18.70
2009,09,27,17,41,18.70